Regional Weather Roundup
Issued by NWS New Orleans/Baton Rouge, LA

Home | Current Version | Previous Version | Text Only | Print | Product List | Glossary Off
Versions: 1 2 3 4 5 6 7 8 9 10 11 12 13 14 15 16 17 18 19 20 21 22 23 24 25 26 27 28 29 30 31 32 33 34 35 36 37 38 39 40 41 42 43 44 45 46 47 48 49 50

949
ASUS44 KLIX 301205
RWRLIX
NEW ORLEANS REGIONAL WEATHER ROUNDUP
NATIONAL WEATHER SERVICE NEW ORLEANS LA
600 AM CST FRI JAN 30 2015

NOTE: "FAIR" INDICATES FEW OR NO CLOUDS BELOW 12,000 FEET WITH NO
      SIGNIFICANT WEATHER AND/OR OBSTRUCTIONS TO VISIBILITY.
      SKY/WX - SKY CONDITION AND SIGNIFICANT WEATHER.
      TMP - AIR TEMPERATURE.     DP    - DEWPOINT TEMPERATURE.
      RH  - RELATIVE HUMIDITY.   PRES  - PRESSURE.
      HI  - HEAT INDEX.          WCI   - WIND CHILL INDEX.

*  THESE STATIONS ARE NOT NWS OR FAA STATIONS AND ARE NOT UNDER
   NWS QUALITY CONTROL.

LAZ038-040-048-061>063-065>067-069-301300-
SOUTHEAST LOUISIANA

CITY           SKY/WX    TMP DP  RH WIND       PRES   REMARKS
N.O. AUDUBON     N/A     52  45  75 MISG        N/A
6HR MIN TEMP:  52; 6HR MAX TEMP:  62; 6HR PCP:  4.55;

N.O. INTL ARPT PTCLDY    50  40  68 N14       30.33R
6HR MIN TEMP:  50; 6HR MAX TEMP:  61;

N.O. LAKEFRONT CLEAR     52  42  69 N18       30.34R
6HR MIN TEMP:  52; 6HR MAX TEMP:  60;

N.O. DOWNTOWN* NOT AVBL
SLIDELL        CLEAR     48  39  71 N8        30.32R
6HR MIN TEMP:  48; 6HR MAX TEMP:  61;

BATON ROUGE    CLEAR     45  36  70 N5        30.36R
6HR MIN TEMP:  45; 6HR MAX TEMP:  62;

BOOTHVILLE     CLEAR     55  50  83 N8        30.29R
6HR MIN TEMP:  55; 6HR MAX TEMP:  62;

BELLE CHASSE   PTCLDY    52  40  63 N9        30.31R
6HR MIN TEMP:  52; 6HR MAX TEMP:  60;

BOGALUSA*        N/A     45  38  75 N7        30.36R
6HR MIN TEMP:  45; 6HR MAX TEMP:  60;

GALLIANO*      SUNNY     54  45  73 N9        30.31R
6HR MIN TEMP:  54; 6HR MAX TEMP:  59;

NEW ROADS*       N/A     43  34  72 N10       30.38R
6HR MIN TEMP:  43; 6HR MAX TEMP:  61;

GONZALES*        N/A     48  40  73 N8G17     30.35R
6HR MIN TEMP:  48; 6HR MAX TEMP:  62;

HAMMOND*       CLEAR     45  36  70 N7        30.37R
HOUMA*         CLEAR     50  45  81 N10       30.31R
PORT FOURCHON* SUNNY     57  48  72 N14G22    30.32R

$$

MSZ070-080>082-301300-
SOUTHERN MISSISSIPPI

CITY           SKY/WX    TMP DP  RH WIND       PRES   REMARKS
MCCOMB         MOCLDY    43  33  68 N9G16     30.37R
6HR MIN TEMP:  43; 6HR MAX TEMP:  58;

GULFPORT       CLEAR     49  40  71 N10       30.30R
6HR MIN TEMP:  49; 6HR MAX TEMP:  59;

BILOXI         CLEAR     50  41  71 N13G21    30.31R
6HR MIN TEMP:  50; 6HR MAX TEMP:  60;

PASCAGOULA     CLEAR     48  40  73 N14       30.30R
6HR MIN TEMP:  48; 6HR MAX TEMP:  59;


$$

COASTAL OBSERVATIONS
LAKE AND NEARSHORE STATIONS

STATION/POSITION TIME  TEMP    WIND        PRES    WAVE
                       AIR SEA DIR/SP/G            HT/PER
                 (UTC) (F)     (DEG/KT/KT) (MB)    (FT/S)
PASCAGOULA       1100   52      20/ 11/ 16 1024.8
WAVELAND YACHT   1100   52      20/ 18/ 21 1025.2
GRAND ISLE       1100   57 63   20/ 17/ 23 1025.7
SOUTHWEST PASS   1100   56 47   20/ 16/ 18 1025.1
NEW CANAL        1100   52 56  360/ 16/ 19 1026.9
SHELL BEACH      1100   54 57  360/ 16/ 19 1025.7

OFFSHORE STATIONS

STATION/POSITION TIME  TEMP    WIND        PRES    WAVE
                       AIR SEA DIR/SP/G            HT/PER
                 (UTC) (F)     (DEG/KT/KT) (MB)    (FT/S)
64 S DAUPHIN ISL 1132   61 68   20/ 25/ 31 1024.1    4/ 4

$$




USA.gov is the U.S. government's official web portal to all federal, state and local government web resources and services.